Location: Colle Santa Colomba
(42.0333°N, 12.5667°E)
Time: 03:38:23
(UTC+00:00)

YAOGAN 1 - Pass Details

Date: 25 October 2021
Orbit: 618 x 620 km, 97.9° (Epoch: 28 November)

Event Time Altitude Azimuth Distance (km) Brightness Sun altitude
Rises 17:22:15 0° 146° (SE) 2,884 5.7 -13.5°
Reaches altitude 10° 17:24:32 10° 138° (SE) 1,982 4.8 -13.9°
Maximum altitude 17:28:32 38° 71° (ENE) 956 3.0 -14.6°
Drops below altitude 10° 17:32:32 10° 3° (N) 1,996 5.1 -15.4°
Sets 17:34:50 0° 356° (N) 2,906 6.0 -15.8°
